This is the latest recevied weather packets stored in our database for station/object K7OWW-2. If no packets are shown the sender has not sent any weather packets the latest 10 day(s).
| Time | Temp. | Humidity | Pressure | Rain* | Wind** | Luminosity | Snow |
|---|---|---|---|---|---|---|---|
| 1788165534 | 2.78° C | 76% | 1017.2 hPa | 0 mm | - | - | - |
| 1788164934 | 3.33° C | 76% | 1017.2 hPa | 0 mm | - | - | - |
| 1788164334 | 3.33° C | 76% | 1017.3 hPa | 0 mm | - | - | - |
| 1788163734 | 3.33° C | 75% | 1017.3 hPa | 0 mm | - | - | - |
| 1788163134 | 3.89° C | 76% | 1017.2 hPa | 0 mm | - | - | - |
| 1788162534 | 3.89° C | 75% | 1017.3 hPa | 0 mm | - | - | - |
| 1788162236 | 4.44° C | 75% | 1017.3 hPa | 0 mm | - | - | - |
| 1788161934 | 4.44° C | 73% | 1017.3 hPa | 0 mm | - | - | - |
| 1788161334 | 4.44° C | 73% | 1017.3 hPa | 0 mm | - | - | - |
| 1788160734 | 4.44° C | 74% | 1017.2 hPa | 0 mm | - | - | - |
| 1788160436 | 5° C | 73% | 1017.2 hPa | 0 mm | - | - | - |
| 1788160134 | 5° C | 72% | 1017.3 hPa | 0 mm | - | - | - |
| 1788159534 | 5.56° C | 70% | 1017.3 hPa | 0 mm | - | - | - |
| 1788158934 | 5.56° C | 69% | 1017.3 hPa | 0 mm | - | - | - |
| 1788158636 | 5.56° C | 69% | 1017.3 hPa | 0 mm | - | - | - |
| 1788158334 | 6.11° C | 68% | 1017.4 hPa | 0 mm | - | - | - |
| 1788157734 | 6.11° C | 68% | 1017.3 hPa | 0 mm | - | - | - |
| 1788157134 | 6.67° C | 67% | 1017.4 hPa | 0 mm | - | - | - |
| 1788156836 | 6.67° C | 68% | 1017.2 hPa | 0 mm | - | - | - |
| 1788156534 | 6.67° C | 67% | 1017.2 hPa | 0 mm | - | - | - |
| 1788155934 | 7.22° C | 66% | 1017.3 hPa | 0 mm | - | - | - |
| 1788155334 | 7.78° C | 65% | 1017.4 hPa | 0 mm | - | - | - |
| 1788155036 | 7.78° C | 65% | 1017.4 hPa | 0 mm | - | - | - |
| 1788154734 | 7.78° C | 64% | 1017.4 hPa | 0 mm | - | - | - |
| 1788154134 | 8.33° C | 63% | 1017.5 hPa | 0 mm | - | - | - |
* Rain latest hour (hover to see other rain measurements)
** Current wind speed in m/s (hover to see current wind gust speed)